This is the latest recevied weather packets stored in our database for station/object KC3JUG-13. If no packets are shown the sender has not sent any weather packets the latest 10 day(s).
| Time | Temp. | Humidity | Pressure | Rain* | Wind** | Luminosity | Snow |
|---|---|---|---|---|---|---|---|
| 1777672606 | 15° C | 55% | 1013 hPa | 0 mm | - | - | - |
| 1777671826 | 15.56° C | 54% | 1013.1 hPa | 0 mm | - | - | - |
| 1777671046 | 15.56° C | 53% | 1013.2 hPa | 0 mm | - | - | - |
| 1777670266 | 16.11° C | 52% | 1012.9 hPa | 0 mm | - | - | - |
| 1777669486 | 16.11° C | 52% | 1013 hPa | 0 mm | - | - | - |
| 1777668706 | 16.11° C | 52% | 1013 hPa | 0 mm | - | - | - |
| 1777667926 | 16.11° C | 51% | 1013 hPa | 0 mm | - | - | - |
| 1777667146 | 15.56° C | 49% | 1013.2 hPa | 0 mm | - | - | - |
| 1777666366 | 15.56° C | 50% | 1013.3 hPa | 0 mm | - | - | - |
| 1777665586 | 15.56° C | 50% | 1013.4 hPa | 0 mm | - | - | - |
| 1777664806 | 15.56° C | 49% | 1013.6 hPa | 0 mm | - | - | - |
| 1777664026 | 16.11° C | 48% | 1013.9 hPa | 0 mm | - | - | - |
| 1777663246 | 15.56° C | 48% | 1014.1 hPa | 0 mm | - | - | - |
| 1777662466 | 15.56° C | 50% | 1014.3 hPa | 0 mm | - | - | - |
| 1777661687 | 15° C | 50% | 1014.3 hPa | 0 mm | - | - | - |
| 1777660907 | 15° C | 50% | 1014.5 hPa | 0 mm | - | - | - |
| 1777660126 | 15° C | 53% | 1014.7 hPa | 0 mm | - | - | - |
| 1777659347 | 14.44° C | 54% | 1015 hPa | 0 mm | - | - | - |
| 1777658567 | 13.89° C | 53% | 1015 hPa | 0 mm | - | - | - |
| 1777657787 | 13.89° C | 55% | 1015 hPa | 0 mm | - | - | - |
| 1777657007 | 13.89° C | 55% | 1015 hPa | 0 mm | - | - | - |
| 1777656227 | 13.33° C | 55% | 1015.1 hPa | 0 mm | - | - | - |
| 1777655447 | 12.78° C | 54% | 1015.2 hPa | 0 mm | - | - | - |
| 1777654667 | 12.78° C | 55% | 1015.3 hPa | 0 mm | - | - | - |
| 1777653887 | 12.22° C | 55% | 1015.4 hPa | 0 mm | - | - | - |
* Rain latest hour (hover to see other rain measurements)
** Current wind speed in m/s (hover to see current wind gust speed)